Terminal Aerodrome Forecast
Issued by NWS Cleveland, OH

Home | Current Version | Previous Version | Text Only | Print | Product List | Glossary On
Versions: 1 2 3 4 5 6 7 8 9 10 11 12
000
FTUS41 KCLE 181700
TAFMFD
TAF
KMFD 181724Z 1818/1918 28007KT P6SM SCT040
     FM182200 32010KT P6SM SCT040 BKN080
     FM190300 03006KT P6SM SCT020=

USA.gov is the U.S. government's official web portal to all federal, state and local government web resources and services.